Find Starlink 2039

NORAD ID: 47655 Int'l Des: 2021-012 Owner: SPXS Country: US Constellation: starlink operational
LEOCIRCULAR

Live-Position

3D-Globus wird geladen...

Über Starlink 2039

Beschreibung wird geladen...

Nächste Überflüge

Passes for default location (London). Set your location on the main map for personalized predictions.

Höhenverlauf

Loading altitude history...

Zweizeiliger Elementsatz

1 47655U 21012AM 26124.43328963 .00000850 00000-0 39144-4 0 9994
2 47655 53.1584 165.8803 0001102 88.0464 272.0664 15.31698116288624
Epoch: 4. Mai 2026 • Age: 23 hours

Aktueller Status

Höhe 474.2 km
Geschwindigkeit 7.63 km/s
Subsatellitenpunkt -12.28°S, 141.38°E
Startdatum 16. Feb. 2021
Alter 5.2 years
Typ internet

Technische Details

Klassifizierung Payload
Masse 260.00 kg
Trockenmasse 248.00 kg
Gesamtmasse 260.00 kg
Länge 0.20 m
Durchmesser 2.80 m
Spannweite 9.00 m
Form Box + pan
Hersteller SPXS
Bus-Typ Starlink
Phasenstatus In Orbit
Besitzer/Staat SPXS/US

Most Searched